﻿測定場所 (Monitoring sites),日付 (Measurement date),時間 (Measurement time),線量率 最大値 (max) μGy/h,線量率 最小値 (min) μGy/h,線量率 平均値 (average) μGy/h,
大田 (Ota),2012-09-09,23:01～24:00,0.0619,0.0539,0.0579,
大田 (Ota),2012-09-09,22:01～23:00,0.0607,0.0536,0.0575,
大田 (Ota),2012-09-09,21:01～22:00,0.0615,0.0536,0.0580,
大田 (Ota),2012-09-09,20:01～21:00,0.0620,0.0528,0.0583,
大田 (Ota),2012-09-09,19:01～20:00,0.0621,0.0525,0.0578,
大田 (Ota),2012-09-09,18:01～19:00,0.0606,0.0534,0.0576,
大田 (Ota),2012-09-09,17:01～18:00,0.0630,0.0543,0.0578,
大田 (Ota),2012-09-09,16:01～17:00,0.0607,0.0533,0.0576,
大田 (Ota),2012-09-09,15:01～16:00,0.0615,0.0541,0.0579,
大田 (Ota),2012-09-09,14:01～15:00,0.0618,0.0549,0.0582,
大田 (Ota),2012-09-09,13:01～14:00,0.0611,0.0549,0.0578,
大田 (Ota),2012-09-09,12:01～13:00,0.0607,0.0553,0.0581,
大田 (Ota),2012-09-09,11:01～12:00,0.0612,0.0545,0.0578,
大田 (Ota),2012-09-09,10:01～11:00,0.0615,0.0547,0.0576,
大田 (Ota),2012-09-09,09:01～10:00,0.0621,0.0536,0.0576,
大田 (Ota),2012-09-09,08:01～09:00,0.0613,0.0534,0.0578,
大田 (Ota),2012-09-09,07:01～08:00,0.0621,0.0545,0.0578,
大田 (Ota),2012-09-09,06:01～07:00,0.0611,0.0544,0.0572,
大田 (Ota),2012-09-09,05:01～06:00,0.0604,0.0527,0.0572,
大田 (Ota),2012-09-09,04:01～05:00,0.0600,0.0536,0.0575,
大田 (Ota),2012-09-09,03:01～04:00,0.0607,0.0542,0.0573,
大田 (Ota),2012-09-09,02:01～03:00,0.0624,0.0543,0.0580,
大田 (Ota),2012-09-09,01:01～02:00,0.0611,0.0537,0.0573,
大田 (Ota),2012-09-09,00:01～01:00,0.0602,0.0543,0.0572,
大田 (Ota),2012-09-08,23:01～24:00,0.0610,0.0549,0.0575,
大田 (Ota),2012-09-08,22:01～23:00,0.0603,0.0536,0.0574,
大田 (Ota),2012-09-08,21:01～22:00,0.0603,0.0547,0.0577,
大田 (Ota),2012-09-08,20:01～21:00,0.0606,0.0527,0.0576,
大田 (Ota),2012-09-08,19:01～20:00,0.0623,0.0546,0.0572,
大田 (Ota),2012-09-08,18:01～19:00,0.0623,0.0543,0.0576,
大田 (Ota),2012-09-08,17:01～18:00,0.0607,0.0534,0.0577,
大田 (Ota),2012-09-08,16:01～17:00,0.0616,0.0543,0.0578,
大田 (Ota),2012-09-08,15:01～16:00,0.0618,0.0531,0.0578,
大田 (Ota),2012-09-08,14:01～15:00,0.0613,0.0538,0.0576,
大田 (Ota),2012-09-08,13:01～14:00,0.0614,0.0542,0.0576,
大田 (Ota),2012-09-08,12:01～13:00,0.0608,0.0539,0.0572,
大田 (Ota),2012-09-08,11:01～12:00,0.0610,0.0537,0.0572,
大田 (Ota),2012-09-08,10:01～11:00,0.0604,0.0524,0.0571,
大田 (Ota),2012-09-08,09:01～10:00,0.0619,0.0543,0.0576,
大田 (Ota),2012-09-08,08:01～09:00,0.0602,0.0552,0.0573,
大田 (Ota),2012-09-08,07:01～08:00,0.0603,0.0540,0.0574,
大田 (Ota),2012-09-08,06:01～07:00,0.0601,0.0535,0.0573,
大田 (Ota),2012-09-08,05:01～06:00,0.0602,0.0532,0.0573,
大田 (Ota),2012-09-08,04:01～05:00,0.0610,0.0548,0.0579,
大田 (Ota),2012-09-08,03:01～04:00,0.0614,0.0533,0.0580,
大田 (Ota),2012-09-08,02:01～03:00,0.0631,0.0535,0.0578,
大田 (Ota),2012-09-08,01:01～02:00,0.0622,0.0530,0.0577,
大田 (Ota),2012-09-08,00:01～01:00,0.0628,0.0540,0.0579,
大田 (Ota),2012-09-07,23:01～24:00,0.0619,0.0542,0.0576,
大田 (Ota),2012-09-07,22:01～23:00,0.0616,0.0542,0.0577,
大田 (Ota),2012-09-07,21:01～22:00,0.0608,0.0530,0.0575,
大田 (Ota),2012-09-07,20:01～21:00,0.0618,0.0546,0.0580,
大田 (Ota),2012-09-07,19:01～20:00,0.0618,0.0537,0.0577,
大田 (Ota),2012-09-07,18:01～19:00,0.0635,0.0544,0.0574,
大田 (Ota),2012-09-07,17:01～18:00,0.0621,0.0526,0.0574,
大田 (Ota),2012-09-07,16:01～17:00,0.0602,0.0525,0.0572,
大田 (Ota),2012-09-07,15:01～16:00,0.0606,0.0534,0.0574,
大田 (Ota),2012-09-07,14:01～15:00,0.0613,0.0537,0.0575,
大田 (Ota),2012-09-07,13:01～14:00,0.0617,0.0544,0.0575,
大田 (Ota),2012-09-07,12:01～13:00,0.0613,0.0541,0.0571,
大田 (Ota),2012-09-07,11:01～12:00,0.0613,0.0545,0.0581,
大田 (Ota),2012-09-07,10:01～11:00,0.0611,0.0552,0.0581,
大田 (Ota),2012-09-07,09:01～10:00,0.0619,0.0537,0.0579,
大田 (Ota),2012-09-07,08:01～09:00,0.0620,0.0543,0.0578,
大田 (Ota),2012-09-07,07:01～08:00,0.0610,0.0528,0.0575,
大田 (Ota),2012-09-07,06:01～07:00,0.0606,0.0528,0.0571,
大田 (Ota),2012-09-07,05:01～06:00,0.0613,0.0533,0.0575,
大田 (Ota),2012-09-07,04:01～05:00,0.0609,0.0532,0.0573,
大田 (Ota),2012-09-07,03:01～04:00,0.0608,0.0539,0.0570,
大田 (Ota),2012-09-07,02:01～03:00,0.0619,0.0534,0.0571,
大田 (Ota),2012-09-07,01:01～02:00,0.0601,0.0537,0.0575,
大田 (Ota),2012-09-07,00:01～01:00,0.0639,0.0563,0.0603,
大田 (Ota),2012-09-06,23:01～24:00,0.0723,0.0600,0.0657,
大田 (Ota),2012-09-06,22:01～23:00,0.0740,0.0654,0.0700,
大田 (Ota),2012-09-06,21:01～22:00,0.0703,0.0592,0.0647,
大田 (Ota),2012-09-06,20:01～21:00,0.0663,0.0575,0.0611,
大田 (Ota),2012-09-06,19:01～20:00,0.0681,0.0602,0.0645,
大田 (Ota),2012-09-06,18:01～19:00,0.0671,0.0577,0.0628,
大田 (Ota),2012-09-06,17:01～18:00,0.0620,0.0540,0.0585,
大田 (Ota),2012-09-06,16:01～17:00,0.0604,0.0549,0.0575,
大田 (Ota),2012-09-06,15:01～16:00,0.0609,0.0534,0.0574,
大田 (Ota),2012-09-06,14:01～15:00,0.0618,0.0538,0.0578,
大田 (Ota),2012-09-06,13:01～14:00,0.0629,0.0543,0.0581,
大田 (Ota),2012-09-06,12:01～13:00,0.0612,0.0539,0.0578,
大田 (Ota),2012-09-06,11:01～12:00,0.0605,0.0533,0.0575,
大田 (Ota),2012-09-06,10:01～11:00,0.0607,0.0536,0.0576,
大田 (Ota),2012-09-06,09:01～10:00,0.0634,0.0550,0.0583,
大田 (Ota),2012-09-06,08:01～09:00,0.0619,0.0553,0.0587,
大田 (Ota),2012-09-06,07:01～08:00,0.0628,0.0534,0.0593,
大田 (Ota),2012-09-06,06:01～07:00,0.0620,0.0543,0.0582,
大田 (Ota),2012-09-06,05:01～06:00,0.0612,0.0553,0.0587,
大田 (Ota),2012-09-06,04:01～05:00,0.0622,0.0546,0.0582,
大田 (Ota),2012-09-06,03:01～04:00,0.0627,0.0549,0.0581,
大田 (Ota),2012-09-06,02:01～03:00,0.0624,0.0546,0.0581,
大田 (Ota),2012-09-06,01:01～02:00,0.0621,0.0533,0.0584,
大田 (Ota),2012-09-06,00:01～01:00,0.0609,0.0529,0.0577,
大田 (Ota),2012-09-05,23:01～24:00,0.0610,0.0547,0.0579,
大田 (Ota),2012-09-05,22:01～23:00,0.0612,0.0538,0.0579,
大田 (Ota),2012-09-05,21:01～22:00,0.0610,0.0537,0.0577,
大田 (Ota),2012-09-05,20:01～21:00,0.0620,0.0543,0.0576,
大田 (Ota),2012-09-05,19:01～20:00,0.0616,0.0549,0.0582,
大田 (Ota),2012-09-05,18:01～19:00,0.0614,0.0547,0.0580,
大田 (Ota),2012-09-05,17:01～18:00,0.0611,0.0534,0.0576,
大田 (Ota),2012-09-05,16:01～17:00,0.0610,0.0529,0.0575,
大田 (Ota),2012-09-05,15:01～16:00,0.0613,0.0533,0.0574,
大田 (Ota),2012-09-05,14:01～15:00,0.0608,0.0526,0.0576,
大田 (Ota),2012-09-05,13:01～14:00,0.0607,0.0540,0.0574,
大田 (Ota),2012-09-05,12:01～13:00,0.0615,0.0539,0.0576,
大田 (Ota),2012-09-05,11:01～12:00,0.0610,0.0535,0.0578,
大田 (Ota),2012-09-05,10:01～11:00,0.0607,0.0545,0.0577,
大田 (Ota),2012-09-05,09:01～10:00,0.0608,0.0535,0.0574,
大田 (Ota),2012-09-05,08:01～09:00,0.0614,0.0539,0.0573,
大田 (Ota),2012-09-05,07:01～08:00,0.0625,0.0548,0.0577,
大田 (Ota),2012-09-05,06:01～07:00,0.0607,0.0538,0.0576,
大田 (Ota),2012-09-05,05:01～06:00,0.0630,0.0536,0.0576,
大田 (Ota),2012-09-05,04:01～05:00,0.0611,0.0536,0.0576,
大田 (Ota),2012-09-05,03:01～04:00,0.0623,0.0546,0.0574,
大田 (Ota),2012-09-05,02:01～03:00,0.0604,0.0533,0.0576,
大田 (Ota),2012-09-05,01:01～02:00,0.0605,0.0539,0.0575,
大田 (Ota),2012-09-05,00:01～01:00,0.0623,0.0536,0.0576,
大田 (Ota),2012-09-04,23:01～24:00,0.0618,0.0528,0.0574,
大田 (Ota),2012-09-04,22:01～23:00,0.0621,0.0544,0.0579,
大田 (Ota),2012-09-04,21:01～22:00,0.0603,0.0528,0.0572,
大田 (Ota),2012-09-04,20:01～21:00,0.0611,0.0525,0.0568,
大田 (Ota),2012-09-04,19:01～20:00,0.0617,0.0536,0.0571,
大田 (Ota),2012-09-04,18:01～19:00,0.0605,0.0526,0.0569,
大田 (Ota),2012-09-04,17:01～18:00,0.0612,0.0528,0.0568,
大田 (Ota),2012-09-04,16:01～17:00,0.0621,0.0539,0.0571,
大田 (Ota),2012-09-04,15:01～16:00,0.0606,0.0534,0.0571,
大田 (Ota),2012-09-04,14:01～15:00,0.0609,0.0521,0.0570,
大田 (Ota),2012-09-04,13:01～14:00,0.0605,0.0524,0.0568,
大田 (Ota),2012-09-04,12:01～13:00,0.0610,0.0541,0.0570,
大田 (Ota),2012-09-04,11:01～12:00,0.0612,0.0526,0.0567,
大田 (Ota),2012-09-04,10:01～11:00,0.0609,0.0541,0.0568,
大田 (Ota),2012-09-04,09:01～10:00,0.0594,0.0536,0.0564,
大田 (Ota),2012-09-04,08:01～09:00,0.0611,0.0529,0.0567,
大田 (Ota),2012-09-04,07:01～08:00,0.0604,0.0526,0.0565,
大田 (Ota),2012-09-04,06:01～07:00,0.0611,0.0529,0.0568,
大田 (Ota),2012-09-04,05:01～06:00,0.0603,0.0530,0.0566,
大田 (Ota),2012-09-04,04:01～05:00,0.0593,0.0529,0.0568,
大田 (Ota),2012-09-04,03:01～04:00,0.0612,0.0536,0.0572,
大田 (Ota),2012-09-04,02:01～03:00,0.0625,0.0547,0.0584,
大田 (Ota),2012-09-04,01:01～02:00,0.0644,0.0572,0.0602,
大田 (Ota),2012-09-04,00:01～01:00,0.0632,0.0561,0.0596,
大田 (Ota),2012-09-03,23:01～24:00,0.0641,0.0545,0.0586,
大田 (Ota),2012-09-03,22:01～23:00,0.0610,0.0525,0.0572,
大田 (Ota),2012-09-03,21:01～22:00,0.0620,0.0542,0.0580,
大田 (Ota),2012-09-03,20:01～21:00,0.0610,0.0534,0.0572,
大田 (Ota),2012-09-03,19:01～20:00,0.0610,0.0542,0.0576,
大田 (Ota),2012-09-03,18:01～19:00,0.0612,0.0535,0.0575,
大田 (Ota),2012-09-03,17:01～18:00,0.0609,0.0524,0.0572,
大田 (Ota),2012-09-03,16:01～17:00,0.0610,0.0538,0.0580,
大田 (Ota),2012-09-03,15:01～16:00,0.0608,0.0537,0.0572,
大田 (Ota),2012-09-03,14:01～15:00,0.0616,0.0542,0.0575,
大田 (Ota),2012-09-03,13:01～14:00,0.0601,0.0538,0.0573,
大田 (Ota),2012-09-03,12:01～13:00,0.0615,0.0532,0.0574,
大田 (Ota),2012-09-03,11:01～12:00,0.0629,0.0520,0.0575,
大田 (Ota),2012-09-03,10:01～11:00,0.0615,0.0538,0.0571,
大田 (Ota),2012-09-03,09:01～10:00,0.0604,0.0517,0.0570,
大田 (Ota),2012-09-03,08:01～09:00,0.0602,0.0538,0.0572,
大田 (Ota),2012-09-03,07:01～08:00,0.0606,0.0546,0.0573,
大田 (Ota),2012-09-03,06:01～07:00,0.0608,0.0536,0.0575,
大田 (Ota),2012-09-03,05:01～06:00,0.0602,0.0534,0.0569,
大田 (Ota),2012-09-03,04:01～05:00,0.0616,0.0535,0.0571,
大田 (Ota),2012-09-03,03:01～04:00,0.0619,0.0533,0.0572,
大田 (Ota),2012-09-03,02:01～03:00,0.0614,0.0533,0.0574,
大田 (Ota),2012-09-03,01:01～02:00,0.0621,0.0549,0.0573,
大田 (Ota),2012-09-03,00:01～01:00,0.0604,0.0530,0.0572,
